[[{"header":{"parameterUnit":"m.s-1","parameterCategory":1,"la1":30.2991,"la2":30.254,"lo1":-89.0895,"lo2":-89.0444,"dy":0.0017,"dx":0.0017,"nx":28,"ny":28,"refTime":"2025-11-08T03:00:00:Z","depth":0,"parameterNumber":2,"parameterNumberName":"U-component_of_WINDS"},"data":[0,0,0,0,0,0,0,0,0,0,0,0,0,0,0,0,0,0,0,0,0,0,0,0,0,0,0,0,0,0,0,0,0,0,0,0,0,0,0,0,0,0,0,0,0,0,0,0,0,0,0,0,0,0,0,0,0,0,1.8663,1.8664,0,1.879,1.8792,1.8793,1.8816,1.8815,1.8814,1.8813,1.8944,1.8948,1.8953,0,0,0,0,0,0,0,0,0,0,0,0,0,1.844,1.8444,1.8663,1.8665,1.8666,1.879,1.8792,1.8794,1.8816,1.8815,1.8814,1.8813,1.8943,1.8948,1.8953,0,0,0,0,0,0,0,0,0,0,0,0,0,1.8549,1.8446,1.8663,1.8692,1.8696,1.879,1.8792,1.8794,1.8817,1.8815,1.8814,1.8812,1.8941,1.8947,1.8954,1.9027,0,0,1.8974,1.8977,0,0,0,0,0,0,0,0,1.8543,1.8557,1.8686,1.8691,1.8695,1.8786,1.8762,1.8872,1.8817,1.8771,1.8813,1.8811,1.8893,1.8903,1.8931,1.9033,1.9039,1.8975,1.8979,1.8982,1.8984,0,0,0,0,0,0,0,1.8535,1.8552,1.8713,1.8688,1.8694,1.87,1.8714,1.8783,1.8839,1.8775,1.8777,1.8792,1.8895,1.8924,1.8934,1.9041,1.8975,1.8981,1.8985,1.8988,1.9211,1.9213,0,0,0,0,0,0,1.8523,1.8546,1.8709,1.8717,1.8614,1.8705,1.872,1.8758,1.8839,1.8849,1.8793,1.8792,1.8914,1.8926,1.8939,1.903,1.8982,1.8988,1.8992,1.9209,1.9211,1.9213,0,0,0,0,0,0,1.8518,1.8537,1.8704,1.8632,1.8654,1.8711,1.8753,1.8762,1.8791,1.8852,1.8862,1.8812,1.8913,1.8929,1.9005,1.9035,1.8991,1.8997,1.9207,1.921,1.9212,1.9214,0,0,0,0,0,0,1.8511,1.8535,1.8563,1.8633,1.8658,1.8768,1.8755,1.8765,1.8803,1.8803,1.8873,1.8883,1.8913,1.8995,1.9012,1.9044,1.9003,1.9204,1.9208,1.9211,1.9211,1.9216,1.922,0,0,0,0,0,1.8503,1.8558,1.8564,1.8584,1.8694,1.877,1.8784,1.8817,1.8805,1.8834,1.8873,1.8881,1.9029,1.9003,1.9022,1.9056,1.9203,1.9207,1.9211,1.9209,1.9215,1.922,0,0,0,0,0,0,1.849,1.8568,1.8575,1.8654,1.8705,1.8774,1.8811,1.8822,1.8878,1.8876,1.8914,1.893,1.9004,1.9038,1.9007,1.9132,1.9115,1.9123,1.9107,1.9113,1.9118,1.9108,1.9008,0,0,0,0,0,1.8497,1.8552,1.8616,1.868,1.8705,1.8754,1.8788,1.8809,1.8863,1.8885,1.893,1.8983,1.9041,1.9079,1.9136,1.9216,1.9232,1.9249,1.9254,1.9257,1.9264,1.931,1.9319,1.9228,1.9228,1.9227,0,0,1.851,1.8559,1.8592,1.8679,1.8721,1.8777,1.8772,1.8832,1.8874,1.8894,1.8969,1.9004,1.9065,1.9144,1.9181,1.9174,1.9293,1.9263,1.9265,1.927,1.9315,1.9324,1.9332,1.923,1.923,1.9229,0,0,1.8564,1.8607,1.8665,1.8707,1.8771,1.8803,1.8817,1.8884,1.8908,1.8984,1.9,1.9052,1.9151,1.9195,1.923,1.9302,1.9312,1.932,1.9344,1.9388,1.9396,1.9402,1.9429,1.9438,1.9326,1.9326,1.9326,0,1.8573,1.8659,1.8693,1.8753,1.8791,1.8812,1.8871,1.8911,1.899,1.9016,1.9008,1.9134,1.9177,1.9267,1.9285,1.9312,1.933,1.9312,1.9392,1.9399,1.9405,1.9431,1.9441,1.9327,1.9327,1.9327,1.9327,0,1.8667,1.8727,1.8766,1.8843,1.8885,1.8944,1.8988,1.9027,1.9044,1.9078,1.9155,1.9207,1.9276,1.9299,1.9316,1.9391,1.9385,1.9384,1.9368,1.9414,1.9439,1.9449,1.9328,1.9327,1.9327,1.9327,0,0,1.8716,1.8811,1.8825,1.8861,1.8933,1.898,1.9041,1.9108,1.9141,1.9196,1.9248,1.9333,1.9332,1.9372,1.9395,1.9434,1.9489,1.9428,1.943,1.9438,1.9576,1.9577,1.9587,1.9495,1.9497,1.9499,1.9571,0,1.8779,1.8888,1.8921,1.9012,1.9068,1.909,1.9143,1.9193,1.9226,1.9279,1.9315,1.9375,1.9369,1.9394,1.9433,1.9473,1.9517,1.9469,1.9545,1.9548,1.9529,1.96,1.9601,1.9666,1.9581,1.9582,1.9584,0,1.8867,1.8924,1.9021,1.9087,1.9112,1.9159,1.9224,1.9274,1.9332,1.9353,1.9399,1.9418,1.9483,1.9464,1.9555,1.9521,1.9555,1.9579,1.9583,1.9591,1.9568,1.9611,1.9688,1.9698,1.9599,1.9598,1.9597,0,1.8894,1.8994,1.9065,1.9095,1.9174,1.9207,1.9242,1.9298,1.9337,1.9394,1.942,1.9483,1.9518,1.9568,1.9605,1.9587,1.9693,1.9676,1.9713,1.9712,1.9734,1.9732,1.9817,1.9755,1.9755,1.9754,1.9754,0,1.8961,1.902,1.9079,1.9122,1.9189,1.9227,1.9292,1.9328,1.9378,1.943,1.9452,1.9501,1.9546,1.9601,1.963,1.9701,1.9717,1.9736,1.9743,1.9734,1.9732,1.9757,1.9753,1.9757,1.9756,1.9756,1.9755,0,1.9002,1.9044,1.9123,1.9192,1.9211,1.9257,1.9316,1.936,1.9394,1.9459,1.9477,1.9531,1.9596,1.9638,1.9721,1.9741,1.9819,1.9824,1.9799,1.9803,1.9837,1.9833,1.9942,1.9958,1.9884,1.9885,1.9885,0,1.9042,1.9088,1.9162,1.9199,1.9233,1.9291,1.9331,1.9371,1.9411,1.9482,1.9517,1.9584,1.964,1.9744,1.979,1.9854,1.9862,1.9896,1.9872,1.9862,1.9863,1.986,1.9865,1.9899,1.99,1.99,1.9901,0,1.911,1.9128,1.9185,1.9249,1.9296,1.9348,1.9401,1.9429,1.9478,1.9523,1.959,1.9633,1.9718,1.9785,1.9853,1.989,1.9904,1.9908,1.992,1.9911,1.9895,1.9905,1.981,1.9905,1.9905,1.9905,1.9904,1.9904,1.9152,1.9194,1.9253,1.9316,1.9359,1.9408,1.9453,1.9493,1.955,1.9622,1.9642,1.9713,1.9771,1.9865,1.9902,1.9959,1.9954,1.9971,1.9976,1.998,1.998,1.9886,1.9971,1.9971,1.9971,1.9971,1.9971,0,1.9221,1.926,1.9317,1.939,1.944,1.9449,1.9507,1.9548,1.961,1.9663,1.9718,1.9796,1.9861,1.9913,1.998,2.0015,2.0023,2.0031,2.0029,2.0038,1.998,1.9963,2.0024,2.0024,2.0024,2.0024,2.0024,2.0024,1.9262,1.9334,1.936,1.9454,1.9493,1.9562,1.9595,1.9641,1.9684,1.977,1.9824,1.9857,1.9911,1.9982,2.0043,2.0056,2.008,2.0087,2.0102,2.0047,2.0042,2.0036,2.002,2.0092,2.0092,2.0155,2.0156,2.0156]},{"header":{"parameterUnit":"m.s-1","parameterCategory":1,"la1":30.2991,"la2":30.254,"lo1":-89.0895,"lo2":-89.0444,"dy":0.0017,"dx":0.0017,"nx":28,"ny":28,"refTime":"2025-11-08T03:00:00:Z","depth":0,"parameterNumber":3,"parameterNumberName":"V-component_of_WINDS"},"data":[0,0,0,0,0,0,0,0,0,0,0,0,0,0,0,0,0,0,0,0,0,0,0,0,0,0,0,0,0,0,0,0,0,0,0,0,0,0,0,0,0,0,0,0,0,0,0,0,0,0,0,0,0,0,0,0,0,0,0.5921,0.5921,0,0.5873,0.5873,0.5872,0.5837,0.5837,0.5837,0.5837,0.5786,0.5785,0.5784,0,0,0,0,0,0,0,0,0,0,0,0,0,0.598,0.5979,0.5921,0.5921,0.592,0.5874,0.5873,0.5872,0.5837,0.5837,0.5837,0.5836,0.5786,0.5785,0.5784,0,0,0,0,0,0,0,0,0,0,0,0,0,0.5946,0.5979,0.5922,0.5897,0.5895,0.5874,0.5873,0.5872,0.5838,0.5837,0.5837,0.5836,0.5787,0.5785,0.5783,0.5782,0,0,0.5778,0.5778,0,0,0,0,0,0,0,0,0.5948,0.5944,0.5901,0.5899,0.5896,0.5861,0.5875,0.5842,0.5838,0.5859,0.5837,0.5836,0.5811,0.5807,0.5799,0.578,0.5778,0.5778,0.5777,0.5777,0.5776,0,0,0,0,0,0,0,0.595,0.5946,0.5902,0.5901,0.5897,0.5888,0.5883,0.5869,0.5838,0.5857,0.5855,0.585,0.5809,0.5801,0.5798,0.5777,0.5778,0.5777,0.5776,0.5775,0.5753,0.5754,0,0,0,0,0,0,0.5957,0.5948,0.5904,0.5901,0.5921,0.5887,0.5881,0.5873,0.5838,0.5833,0.585,0.5848,0.5804,0.58,0.5796,0.5792,0.5777,0.5775,0.5774,0.5753,0.5753,0.5754,0,0,0,0,0,0,0.5958,0.5953,0.5906,0.5924,0.5917,0.5887,0.5877,0.5872,0.5863,0.5833,0.5827,0.5847,0.5803,0.5798,0.5786,0.579,0.5774,0.5773,0.5752,0.5753,0.5753,0.5785,0,0,0,0,0,0,0.596,0.5954,0.5954,0.5924,0.5916,0.5898,0.5878,0.5871,0.5861,0.5858,0.5828,0.5823,0.5803,0.5788,0.5784,0.5787,0.5772,0.5752,0.5753,0.5753,0.5783,0.5787,0.5789,0,0,0,0,0,0.5962,0.5964,0.5954,0.5949,0.5916,0.5898,0.5893,0.587,0.5861,0.5861,0.5841,0.5824,0.579,0.5788,0.5782,0.5785,0.5752,0.5752,0.5753,0.5782,0.5786,0.5789,0,0,0,0,0,0,0.5995,0.596,0.5948,0.5941,0.5923,0.5892,0.5891,0.5875,0.5859,0.5856,0.5828,0.5821,0.5812,0.5797,0.5795,0.5782,0.5769,0.5768,0.5792,0.5796,0.5798,0.5803,0.577,0,0,0,0,0,0.6002,0.5991,0.596,0.5957,0.5948,0.5921,0.5912,0.5896,0.5876,0.5868,0.5847,0.5828,0.5812,0.5803,0.5787,0.5781,0.5773,0.578,0.5783,0.5785,0.5786,0.5781,0.5783,0.5756,0.5756,0.5756,0,0,0.6015,0.5994,0.5989,0.5963,0.5947,0.5936,0.5915,0.5904,0.5895,0.5866,0.5853,0.5837,0.5813,0.5804,0.5799,0.5791,0.5791,0.5786,0.5789,0.5788,0.5782,0.5785,0.5787,0.5757,0.5757,0.5757,0,0,0.6034,0.6017,0.6012,0.5996,0.5972,0.5954,0.5953,0.5924,0.5913,0.5899,0.5877,0.5866,0.584,0.5824,0.5812,0.5824,0.5808,0.5819,0.5835,0.583,0.5832,0.5834,0.5838,0.584,0.582,0.582,0.582,0,0.6053,0.6036,0.6011,0.6002,0.5991,0.5964,0.5958,0.5944,0.5916,0.5908,0.59,0.5867,0.5849,0.5836,0.5838,0.583,0.5827,0.5823,0.5834,0.5835,0.5837,0.584,0.5842,0.5821,0.5821,0.5821,0.5821,0,0.6061,0.605,0.6048,0.6023,0.6011,0.6003,0.5977,0.5968,0.5952,0.5934,0.5921,0.5898,0.5877,0.5872,0.5857,0.5856,0.5852,0.5839,0.5826,0.5841,0.5844,0.5845,0.5824,0.5823,0.5822,0.5822,0,0,0.61,0.606,0.606,0.6048,0.6019,0.6009,0.6,0.598,0.5973,0.5954,0.5945,0.5924,0.5912,0.5898,0.588,0.5876,0.5887,0.5864,0.5863,0.5869,0.5884,0.5895,0.5897,0.5875,0.5876,0.5876,0.5887,0,0.6115,0.6098,0.6075,0.6065,0.6054,0.6028,0.6019,0.6,0.5983,0.597,0.5951,0.5936,0.5921,0.5913,0.5907,0.5887,0.589,0.5885,0.5867,0.5866,0.5875,0.5898,0.591,0.5921,0.5887,0.5888,0.5888,0,0.613,0.6113,0.6103,0.6074,0.6069,0.6062,0.6041,0.6029,0.6007,0.5994,0.5979,0.596,0.5948,0.5935,0.5917,0.5915,0.5906,0.5894,0.5894,0.5892,0.5879,0.5898,0.5924,0.5926,0.5889,0.5889,0.5889,0,0.616,0.6135,0.6125,0.6115,0.6082,0.6077,0.6063,0.604,0.6029,0.6011,0.6003,0.5983,0.5973,0.5957,0.5933,0.5925,0.5918,0.5903,0.5907,0.5908,0.5908,0.5908,0.5934,0.59,0.59,0.59,0.59,0,0.618,0.6174,0.6138,0.6133,0.6125,0.6098,0.6092,0.6075,0.6054,0.6044,0.6019,0.601,0.5977,0.5964,0.5944,0.5933,0.5928,0.5918,0.5913,0.592,0.5922,0.5915,0.5913,0.5901,0.5901,0.5901,0.59,0,0.6213,0.6189,0.6176,0.6145,0.6137,0.6134,0.6106,0.6099,0.608,0.6067,0.6063,0.6032,0.6015,0.5989,0.5964,0.5951,0.5943,0.5934,0.5951,0.5948,0.5954,0.5954,0.5976,0.5978,0.5943,0.5944,0.5944,0,0.6227,0.6223,0.6191,0.6183,0.617,0.6156,0.6145,0.6118,0.6107,0.608,0.6076,0.6057,0.6041,0.6014,0.599,0.597,0.5961,0.597,0.5958,0.5966,0.5962,0.5963,0.5962,0.5973,0.5974,0.5974,0.5975,0,0.6256,0.6244,0.6229,0.621,0.6197,0.6181,0.6163,0.6157,0.6125,0.6114,0.6097,0.6084,0.6058,0.604,0.6017,0.6001,0.5982,0.5978,0.5978,0.5987,0.5997,0.5992,0.5959,0.5978,0.5978,0.5978,0.5978,0.5977,0.628,0.6275,0.6252,0.6236,0.622,0.6203,0.6195,0.6175,0.616,0.6137,0.6121,0.6105,0.6081,0.6048,0.6033,0.6019,0.6011,0.6011,0.6011,0.6012,0.6015,0.5999,0.6015,0.6014,0.6014,0.6014,0.6014,0,0.6307,0.6291,0.6277,0.6253,0.624,0.6224,0.6203,0.6194,0.618,0.6159,0.6143,0.6123,0.6104,0.6078,0.6057,0.6051,0.6042,0.6047,0.6047,0.6044,0.6023,0.6025,0.6054,0.6054,0.6054,0.6054,0.6054,0.6054,0.632,0.631,0.6296,0.6277,0.626,0.6244,0.6234,0.6218,0.6202,0.618,0.6165,0.6148,0.6125,0.6102,0.6084,0.6076,0.607,0.6078,0.6068,0.6049,0.6045,0.6042,0.6044,0.6076,0.6076,0.609,0.609,0.609]}]]